Regional Weather Roundup
Issued by NWS

Home | Current Version | Previous Version | Graphics & Text | Print | Product List | Glossary On
Versions: 1 2 3 4 5 6 7 8 9 10 11 12 13 14 15 16 17 18 19 20 21 22 23 24 25 26 27 28 29 30 31 32 33 34 35 36 37 38 39 40 41 42 43 44 45 46 47 48 49 50
000
ASUS45 KPSR 310410
RWRAZ

ARIZONA REGIONAL HOURLY WEATHER ROUNDUP
NATIONAL WEATHER SERVICE PHOENIX AZ
900 PM MST WED JUL 30 2014

NOTE: FAIR INDICATES FEW OR NO CLOUDS BELOW 12,000 FEET WITH NO
SIGNIFICANT WEATHER AND/OR OBSTRUCTIONS TO VISIBILITY.

AZZ001>003-036-310500-
NORTHWEST ARIZONA

CITY           SKY/WX    TMP DP  RH WIND       PRES   REMARKS
BULLHEAD CITY  CLEAR    102  50  17 NW3       29.76R
KINGMAN        CLEAR     88  47  24 N5        30.02R
$$

AZZ004>008-015-016-018-310500-
NORTH CENTRAL ARIZONA

CITY           SKY/WX    TMP DP  RH WIND       PRES   REMARKS
GRAND CANYON   PTCLDY    66  48  52 CALM      30.29R
WILLIAMS       MOCLDY    72  46  40 SW6       30.36R
PRESCOTT       PTCLDY    81  46  29 SW7       30.16R
FLAGSTAFF      CLEAR     69  45  41 SW6       30.33R
PAYSON         CLEAR     84  48  28 SW6       30.19R
PAGE           PTCLDY    87  46  24 NW5       30.06R
$$

AZZ009>014-017-310500-
NORTHEAST ARIZONA

CITY           SKY/WX    TMP DP  RH WIND       PRES   REMARKS
WINSLOW        MOCLDY    87  45  23 SW13      30.12R
SAINT JOHNS    MOCLDY    82  48  30 CALM      30.18R
WINDOW ROCK    CLEAR     73  43  33 CALM      30.27R
SHOW LOW       MOCLDY    75  45  33 SW7       30.29R
$$

AZZ023-310500-
GREATER PHOENIX AREA

CITY           SKY/WX    TMP DP  RH WIND       PRES   REMARKS
PHOENIX        MOCLDY   104  50  16 SW5       29.79R HX 101
BUCKEYE          N/A     99  54  22 SW8       29.80R
LUKE AFB       NOT AVBL
DEER VALLEY    CLEAR    101  51  18 SW5       29.82R
SCOTTSDALE     PTCLDY   102  52  18 CALM      29.84R
CHANDLER       PTCLDY   100  50  18 SW7       29.82R
$$

AZZ027-028-310500-
SOUTHWEST MARICOPA COUNTY AND PINAL COUNTY

CITY           SKY/WX    TMP DP  RH WIND       PRES   REMARKS
CASA GRANDE    PTCLDY    99  50  19 CALM      29.86R
GILA BEND      PTCLDY   102  50  17 SW9       29.81R
$$

AZZ503-504-507>509-310500-
SOUTHEAST ARIZONA

CITY           SKY/WX    TMP DP  RH WIND       PRES   REMARKS
TUCSON         CLOUDY    90  55  30 VRB3      30.02R
DAVIS-MONTHAN  MOCLDY    88  56  33 E6        30.01R
NOGALES        CLOUDY    70  62  76 CALM      30.12R
SIERRA VISTA   CLOUDY    75  54  46 VRB3      30.17R
SAFFORD        PTCLDY    90  48  23 NW10      29.96R
$$

AZZ020-021-025-026-031-310500-
SOUTHWEST ARIZONA

CITY           SKY/WX    TMP DP  RH WIND       PRES   REMARKS
YUMA           PTCLDY   101  56  22 S9        29.75R HX 100
$$

CAZ031-033-041-043-047-048-061-310500-
SOUTHERN CALIFORNIA

CITY           SKY/WX    TMP DP  RH WIND       PRES   REMARKS
DOWNTOWN L.A.  CLEAR     71  61  70 CALM      29.91R
L.A. AIRPORT   PTCLDY    69  63  81 W5        29.92R
SAN DIEGO      PTCLDY    73  67  81 NW5       29.94R
BURBANK        PTCLDY    77  57  50 SE7       29.92R
ONTARIO        PTCLDY    82  58  43 W10       29.93R
RIVERSIDE      CLEAR     83  58  42 W6        29.93R
PALM SPRINGS   CLEAR    104  46  14 NW16G23   29.78R HX 100
EL CENTRO NAS  PTCLDY   103  50  17 W15       29.73R HX 100
IMPERIAL       PTCLDY   104  51  17 SW9       29.73R HX 101
BLYTHE           N/A    N/A N/A N/A MISG      29.74R
NEEDLES        CLEAR    104  58  21 SW6       29.77R HX 104
$$

NVZ020-UTZ003-310500-
SOUTHERN NEVADA-UTAH

CITY           SKY/WX    TMP DP  RH WIND       PRES   REMARKS
LAS VEGAS      MOCLDY    97  48  18 NW22G30   29.87S
SALT LAKE CITY PTCLDY    74  52  46 E8        30.17R
$$

NMZ009-TXZ055-310500-
NEW MEXICO-WEST TEXAS

CITY           SKY/WX    TMP DP  RH WIND       PRES   REMARKS
ALBUQUERQUE    CLOUDY    72  58  61 E35G46    30.17R
EL PASO        CLOUDY    82  60  47 W6        30.05F
$$


........................KEY........................
SKY/WX - SKY CONDITION/WEATHER
TMP    - TEMPERATURE IN FAHRENHEIT
DP     - DEW POINT IN FAHRENHEIT
RH     - RELATIVE HUMIDITY IN PERCENT
WIND   - DIRECTION AND SPEED IN MILES PER HOUR (MPH)
VRB    - VARIABLE WIND DIRECTION
PRES   - MEAN SEA LEVEL PRESSURE IN INCHES OF MERCURY
         F - FALLING PRESSURE   R - RISING PRESSURE
         S - STEADY PRESSURE
VSB    - VISIBILITY IN MILES
HX     - HEAT INDEX IN FAHRENHEIT
WCI    - WIND CHILL INDEX IN FAHRENHEIT
TC     - TEMPERATURE IN CELSIUS WHICH IS ALSO KNOWN AS
         TEMPERATURE IN CENTIGRADE
AFB    - AIR FORCE BASE
         LUKE AFB IS LUKE AIR FORCE BASE
         DAVIS-MONTHAN IS DAVIS-MONTHAN AIR FORCE BASE
NAS    - NAVAL AIR STATION
         EL CENTRO NAS IS EL CENTRO NAVAL AIR STATION
N/A    - NOT AVAILABLE



USA.gov is the U.S. government's official web portal to all federal, state and local government web resources and services.